Location: Observatoire
(46.1952°N, 5.3391°E)
Time: 15:43:23
(UTC+01:00)

Courier 1B - Pass Details

Date: 16 February 2026
Orbit: 962 x 1208 km, 28.3° (Epoch: 5 March)

Event Time Altitude Azimuth Distance (km) Brightness Sun altitude
Rises 19:48:58 0° 202° (SSW) 3,922 10.9 -18.4°
Maximum altitude 19:56:03 10° 156° (SSE) 3,052 9.8 -19.7°
Drops below altitude 10° 19:56:08 10° 155° (SSE) 3,053 9.8 -19.7°
Enters shadow 19:57:13 10° 147° (SSE) 3,093 9.8 -19.9°
